Showing default

STRIX 2, 62406

Orbit data source: Space-Track

STRIX 2, 62406 is a payload satellite owned by Synspective (JP) in SSO that was launched on Sat, 21 Dec 2024 UTC via an ELECTRON launch vehicle from the Rocket Lab Launch Complex (RLLC). Payload-class satellites include a variety of spacecraft equipped with specific instruments for various scientific and technological missions. These include communications satellites like Starlink; space stations such as the ISS; scientific satellites like the Hubble; Earth observation satellites from companies like Planet Labs, Umbra, and HawkEye 360; GPS; miniature CubeSats for education and research; and military/defense satellites.

Loading next visibility...
Identifier
62406, 2024-248A
Orbit
SSO
Country
Flag of JPJP / JPN
Related business
Manufacturer
Synspective
Mission
Operational Commercial Radar Imaging
Bus & Motor
STRIX, Unknown motor
Mass
150 kg wet, 150 kg dry
Launch date (UTC)
2024-12-21 (1 year ago)
Launch vehicle
ELECTRON
Launch site
Rocket Lab Launch Complex (RLLC)
Object type
Payload
Rocket body
Debris
Shape & HBR
Box + 2 Pan, 1.0 m
Radar Cross Section
1.052 m², Medium (>0.1 m² and < 1m²)

Expand to show TLE details & history
Last TLE update: 9 hours ago

TLE from 9 hours ago
0 STRIX 2
1 62406U 24248A   26171.52148274  .00004444  00000-0  28501-3 0  9993
2 62406  97.6290 127.1424 0014604 330.8529  29.1882 15.08934642 82090
Epoch: 2026-06-20T12:30Z
TLE epoch observation values (Epoch: 2026-06-20T12:30:56.108Z)
Latitude
-0.00013°
Longitude
30.67372°
Altitude
533.705 km
Speed
7.601 km/s
True Right ascension
08h 28m 34s
True Declination
0° 00' 00"
Sunlit
Object was in daylight at epoch
Visualization orbit readout
Latitude
Unknown
Longitude
Unknown
Altitude
Unknown
Speed
Unknown
Apparent Right ascension
Unknown
Apparent Declination
Unknown
Sunlit
N/A
Visualization observer readout
Local Sidereal Time
08:43:07
Azimuth
Unknown
Elevation
Unknown
Doppler factor
Unknown
Orbital elements
Apogee altitude
546.542 km
Perigee altitude
526.346 km
Semi-major axis
6,914.581 km
Eccentricity
0.00146
Inclination
97.629°
RAAN
127.1424°
Arg. of periapsis
330.8529°
True anomaly
29.26994°
Mean anomaly
29.1882°
Eccentric anomaly
29.22906°
Mean motion
3.7748 °/min
Orbital period
95.37 mins
BSTAR
0.00028501
Loading maneuver chart data...
Computing Atmospheric mass density...
Loading historical data...
Loading historical data...
Loading historical data...
Loading historical data...
Loading historical data...
Loading historical data...
Loading historical data...
Other satellites on launch #248 in the year 2024 (2024-12-21 UTC)

Documentation

Showing up to 5 results
|